EW5797 Weather Reports


time (UTC)temp
F
wind
direction
speed
knots
gust
knots
rain 1hr
in
rain 24hr
in
rain mn
in
humidity
%
barometer
mb
20260504231702 75 303 2.6 6.1 0.00 0.00 0.00 42 1013.0
20260504230703 76 325 2.6 7.0 0.00 0.00 0.00 41 1013.0
20260504230203 76 266 2.6 7.0 0.00 0.00 0.00 42 1013.0
20260504225703 76 279 1.7 4.3 0.00 0.00 0.00 42 1013.1
20260504225203 76 292 1.7 2.6 0.00 0.00 0.00 44 1013.1
20260504224703 76 265 1.7 5.2 0.00 0.00 0.00 41 1013.1
20260504224203 76 250 1.7 4.3 0.00 0.00 0.00 41 1013.2
20260504223702 76 284 0.9 4.3 0.00 0.00 0.00 43 1013.2
20260504222703 76 280 1.7 4.3 0.00 0.00 0.00 44 1013.2
20260504222202 76 301 1.7 2.6 0.00 0.00 0.00 43 1013.2
20260504221202 76 324 2.6 6.1 0.00 0.00 0.00 42 1013.3
20260504220703 76 308 2.6 7.0 0.00 0.00 0.00 43 1013.3
20260504220203 76 127 1.7 4.3 0.00 0.00 0.00 42 1013.2
20260504215703 76 307 2.6 7.0 0.00 0.00 0.00 41 1013.2
20260504214702 76 291 2.6 8.7 0.00 0.00 0.00 42 1013.4
20260504214203 76 224 1.7 4.3 0.00 0.00 0.00 42 1013.4
20260504213703 76 275 1.7 5.2 0.00 0.00 0.00 44 1013.4
20260504213203 76 285 1.7 5.2 0.00 0.00 0.00 43 1013.4
20260504212703 76 272 2.6 7.0 0.00 0.00 0.00 42 1013.5
20260504212203 76 297 1.7 5.2 0.00 0.00 0.00 40 1013.4
20260504211702 76 303 1.7 4.3 0.00 0.00 0.00 43 1013.5
20260504211203 76 270 0.9 7.8 0.00 0.00 0.00 43 1013.5
20260504210702 76 281 2.6 5.2 0.00 0.00 0.00 42 1013.5
20260504210203 76 193 1.7 7.8 0.00 0.00 0.00 42 1013.5
20260504205703 75 1 2.6 7.0 0.00 0.00 0.00 46 1013.6
20260504204203 75 180 2.6 7.0 0.00 0.00 0.00 41 1013.8
20260504203702 75 214 1.7 6.1 0.00 0.00 0.00 43 1013.8
20260504203203 75 159 1.7 7.8 0.00 0.00 0.00 45 1013.9
20260504202703 75 235 2.6 7.8 0.00 0.00 0.00 45 1014.0
20260504202203 75 305 1.7 7.0 0.00 0.00 0.00 47 1014.1
20260504201702 75 279 2.6 7.8 0.00 0.00 0.00 47 1014.0
20260504200703 74 203 1.7 4.3 0.00 0.00 0.00 46 1014.1
20260504200203 74 265 1.7 10.4 0.00 0.00 0.00 50 1014.3
20260504195203 74 161 1.7 11.3 0.00 0.00 0.00 47 1014.5
20260504194703 75 243 1.7 5.2 0.00 0.00 0.00 47 1014.6
20260504193703 73 45 2.6 5.2 0.00 0.00 0.00 47 1014.8
20260504193203 73 46 0.9 5.2 0.00 0.00 0.00 50 1014.9
20260504192203 74 328 1.7 7.0 0.00 0.00 0.00 50 1015.2
20260504191703 74 254 1.7 7.0 0.00 0.00 0.00 52 1015.3
20260504191203 73 228 2.6 10.4 0.00 0.00 0.00 49 1015.3
20260504190702 73 238 2.6 5.2 0.00 0.00 0.00 48 1015.4
20260504190203 73 317 2.6 6.1 0.00 0.00 0.00 47 1015.6
20260504185703 73 303 0.9 6.1 0.00 0.00 0.00 45 1015.6
20260504185202 73 190 2.6 4.3 0.00 0.00 0.00 51 1015.7
20260504184703 73 177 4.3 10.4 0.00 0.00 0.00 47 1015.7
20260504184203 73 130 1.7 5.2 0.00 0.00 0.00 48 1015.9
20260504183703 72 256 2.6 7.8 0.00 0.00 0.00 48 1015.9
20260504183203 73 246 1.7 7.8 0.00 0.00 0.00 45 1016.0
20260504182702 72 282 2.6 7.8 0.00 0.00 0.00 48 1016.0
20260504182203 71 286 3.5 7.0 0.00 0.00 0.00 46 1016.1
20260504181703 72 281 2.6 7.8 0.00 0.00 0.00 47 1016.2
20260504181203 72 170 2.6 7.8 0.00 0.00 0.00 48 1016.2
20260504180703 72 207 2.6 7.0 0.00 0.00 0.00 48 1016.2
20260504180203 72 278 1.7 8.7 0.00 0.00 0.00 46 1016.3
20260504175703 71 254 1.7 7.0 0.00 0.00 0.00 48 1016.4
20260504175203 72 268 2.6 8.7 0.00 0.00 0.00 48 1016.5
20260504174702 71 253 1.7 6.1 0.00 0.00 0.00 47 1016.4
20260504173703 70 291 2.6 7.8 0.00 0.00 0.00 48 1016.4
20260504173203 69 267 1.7 7.0 0.00 0.00 0.00 49 1016.5
20260504172703 69 130 1.7 5.2 0.00 0.00 0.00 50 1016.5
20260504172203 69 157 1.7 5.2 0.00 0.00 0.00 49 1016.6
20260504171703 68 259 1.7 7.0 0.00 0.00 0.00 49 1016.6
20260504170703 67 319 0.9 2.6 0.00 0.00 0.00 50 1016.8
20260504150703 59 5 1.7 4.3 0.00 0.00 0.00 65 1019.2
20260504150203 58 177 0.9 2.6 0.00 0.00 0.00 63 1019.4
20260504141203 53 175 0.9 2.6 0.00 0.00 0.00 72 1019.7
20260504140203 52 35 0.9 2.6 0.00 0.00 0.00 76 1019.9
20260504130703 47 33 0.9 2.6 0.00 0.00 0.00 85 1018.9
20260504130203 46 48 0.9 2.6 0.00 0.00 0.00 86 1018.9
20260504120203 42 335 0.9 1.7 0.00 0.00 0.00 92 1018.1
20260504110703 39 51 0.9 1.7 0.00 0.00 0.00 90 1017.2
20260504110203 39 312 0.9 1.7 0.00 0.00 0.00 90 1017.3
20260504100203 38 320 0.0 0.9 0.00 0.00 0.00 87 1017.9
20260504081703 40 259 0.0 0.9 0.00 0.00 0.00 84 1018.0
20260504081203 41 321 0.0 0.9 0.00 0.00 0.00 85 1018.0
20260504080703 41 304 0.9 0.9 0.00 0.00 0.00 85 1018.1
20260504080203 41 25 0.9 1.7 0.00 0.00 0.00 85 1018.0
20260504060203 42 312 0.9 0.9 0.00 0.00 0.00 79 1018.2
20260504050704 44 131 0.0 0.9 0.00 0.00 0.00 75 1018.2
20260504045704 44 165 0.9 1.7 0.00 0.00 0.00 74 1018.1
20260504044704 45 184 0.9 1.7 0.00 0.00 0.00 74 1018.2
20260504044204 45 200 0.9 1.7 0.00 0.00 0.00 73 1018.1
20260504043703 45 158 0.9 1.7 0.00 0.00 0.00 72 1018.1
20260504043203 45 167 0.9 1.7 0.00 0.00 0.00 71 1018.1
20260504042703 45 233 0.0 1.7 0.00 0.00 0.00 70 1018.0
20260504041203 46 211 0.9 1.7 0.00 0.00 0.00 69 1017.9
20260504040703 46 195 0.0 1.7 0.00 0.00 0.00 69 1017.9
20260504040203 46 317 0.9 0.9 0.00 0.00 0.00 68 1017.8
20260504035703 46 161 0.9 1.7 0.00 0.00 0.00 68 1017.9
20260504035203 47 297 0.0 0.9 0.00 0.00 0.00 68 1018.0
20260504034703 47 322 0.0 0.9 0.00 0.00 0.00 67 1017.9
20260504034203 47 32 0.0 0.9 0.00 0.00 0.00 67 1018.0
20260504033203 47 342 0.0 0.9 0.00 0.00 0.00 67 1017.7
20260504032203 48 113 0.0 0.9 0.00 0.00 0.00 64 1017.8
20260504031703 48 130 0.0 1.7 0.00 0.00 0.00 63 1017.8
20260504031204 48 287 0.0 0.9 0.00 0.00 0.00 63 1017.6
20260504030703 48 129 0.9 0.9 0.00 0.00 0.00 61 1017.6
20260504030203 48 296 0.0 0.9 0.00 0.00 0.00 61 1017.7
20260504025704 49 310 0.0 0.9 0.00 0.00 0.00 60 1017.8
20260504025204 49 218 0.0 0.9 0.00 0.00 0.00 60 1017.7
20260504024203 49 81 0.0 0.9 0.00 0.00 0.00 60 1017.7
20260504023704 50 7 0.9 1.7 0.00 0.00 0.00 59 1017.7
20260504022704 50 144 0.9 1.7 0.00 0.00 0.00 57 1017.6
20260504022204 50 138 0.9 1.7 0.00 0.00 0.00 57 1017.5
20260504021703 50 144 0.9 1.7 0.00 0.00 0.00 55 1017.6
20260504021203 50 276 0.0 0.9 0.00 0.00 0.00 56 1017.6
20260504020703 51 318 0.0 0.9 0.00 0.00 0.00 56 1017.6
20260504020203 51 312 0.9 0.9 0.00 0.00 0.00 55 1017.6
20260504015203 51 124 0.9 1.7 0.00 0.00 0.00 54 1017.3
20260504014203 51 141 0.0 0.9 0.00 0.00 0.00 55 1017.5
20260504013703 52 129 0.9 1.7 0.00 0.00 0.00 51 1017.5
20260504013203 52 155 0.9 1.7 0.00 0.00 0.00 53 1017.6
20260504012204 53 345 0.0 1.7 0.00 0.00 0.00 52 1017.6
20260504011703 54 186 0.9 0.9 0.00 0.00 0.00 52 1017.5
20260504011204 54 281 0.0 0.9 0.00 0.00 0.00 50 1017.5
20260504010704 55 126 0.0 0.9 0.00 0.00 0.00 50 1017.5
20260504010204 55 307 0.9 1.7 0.00 0.00 0.00 49 1017.5
20260504005704 56 125 0.9 0.9 0.00 0.00 0.00 49 1017.2
20260504004703 57 139 0.9 1.7 0.00 0.00 0.00 45 1017.1
20260504004204 57 73 0.0 0.9 0.00 0.00 0.00 45 1017.1
20260504003704 58 133 0.9 1.7 0.00 0.00 0.00 43 1017.1
20260504002703 58 142 0.9 1.7 0.00 0.00 0.00 42 1016.9
20260504001704 59 158 0.9 1.7 0.00 0.00 0.00 40 1016.8
20260504001203 59 164 0.9 4.3 0.00 0.00 0.00 39 1016.7
20260504000703 60 292 1.7 4.3 0.00 0.00 0.00 40 1016.8
20260504000204 60 265 1.7 2.6 0.00 0.00 0.00 40 1016.8
20260503235704 60 233 1.7 4.3 0.00 0.00 0.00 39 1016.9
20260503234704 61 212 0.9 2.6 0.00 0.00 0.00 38 1016.9
20260503234204 62 288 1.7 4.3 0.00 0.00 0.00 38 1016.8
20260503233704 62 189 1.7 4.3 0.00 0.00 0.00 37 1016.9
20260503233203 62 207 0.9 4.3 0.00 0.00 0.00 36 1017.0
20260503232703 62 269 1.7 6.1 0.00 0.00 0.00 36 1017.1
20260503232203 63 239 1.7 5.2 0.00 0.00 0.00 37 1017.0